Other Public Products
Issued by NWS Grand Forks, ND

Home | Current Version | Previous Version | Text Only | Print | Product List | Glossary Off
Versions: 1 2 3 4 5 6 7 8 9 10 11 12 13 14 15 16 17 18 19 20 21 22 23 24 25 26 27 28 29 30 31 32 33 34 35 36 37 38 39 40 41 42 43 44 45 46 47 48 49 50

000
FPUS83 KFGF 292331
OPUFGF
PRAIRIE TO PINES WEATHER ROUNDUP
NATIONAL WEATHER SERVICE EASTERN NORTH DAKOTA/GRAND FORKS ND
600 PM CDT FRI MAY 29 2015

 **SATELLITE DATA USED TO AUGMENT SKY COVER AT AUTOMATED STATIONS**
 *****  WEATHER ACROSS EASTERN NORTH DAKOTA  *****

CITY           SKY/WX    TMP DP  RH WIND       PRES   REMARKS
GRAND FORKS    MOSUNNY   54  36  50 N24G31    30.19R
GRAND FORKS AF MOSUNNY   55  35  45 N20G30    30.19S
GRAND CITY NWS   N/A     54 N/A N/A N13         N/A
BUXTON           N/A     55  36  49 NW15G28     N/A
DEVILS LAKE    SUNNY     55  30  38 N20       30.23R
FARGO          PTSUNNY   55  41  59 N22G32    30.15R
WAHPETON ARPT  CLOUDY    52  39  62 N18G28    30.13S
$$

 *****  WEATHER ACROSS CENTRAL AND WESTERN NORTH DAKOTA  *****

CITY           SKY/WX    TMP DP  RH WIND       PRES   REMARKS
JAMESTOWN      MOSUNNY   57  38  48 N20G29    30.19R
BISMARCK       SUNNY     57  35  43 N14       30.26R
MINOT          SUNNY     57  32  38 NW14G20   30.27R
MINOT AFB      SUNNY     57  33  39 N9G17     30.26S
GARRISON         N/A     56  33  42 NE8       30.27S
WILLISTON      SUNNY     60  32  34 MISG      30.29S
DICKINSON        N/A     56  35  45 VRB5      30.26S
HETTINGER      MOSUNNY   54  36  50 N7        30.28S
$$

 *****  OTHER OBSERVATIONS NORTHEAST NORTH DAKOTA  *****

CITY           SKY/WX    TMP DP  RH WIND       PRES   REMARKS
WALHALLA         N/A     50  32  50 MISG      30.27R
LANGDON        FAIR      50  32  50 N20G29    30.25R
CAVALIER       FAIR      52  36  54 N21       30.24R
GRAFTON        FAIR      54  34  47 N22G29    30.22S
CANDO          FAIR      54  30  40 N16G25    30.26R
FORT TOTTEN      N/A     58  35  41 N7        29.95S
ROLLA          FAIR      50  32  50 N17       30.27S
RUGBY          NOT AVBL
 ***** THE ABOVE OBSERVATIONS ARE NON NWS ARE NOT QUALITY
        CONTROLLED AND MAY MIS-REPORT RAIN FOR SNOW...
$$

 *****  OTHER OBSERVATIONS SOUTHEAST NORTH DAKOTA *****

CITY           SKY/WX    TMP DP  RH WIND       PRES   REMARKS
COOPERSTOWN    NOT AVBL
VALLEY CITY    FAIR      55  39  54 NE17G23   30.19R
OAKES            N/A     55  43  62 N20G26    30.17S
GWINNER        NOT AVBL
SHEYENNE NWR     N/A     55  40  56 N15       29.95S
BUFFALO        NOT AVBL
WYNDMERE         N/A     54  43  66 N17         N/A
 ***** THE ABOVE OBSERVATIONS ARE NON NWS ARE NOT QUALITY
       CONTROLLED AND MAY MIS-REPORT RAIN FOR SNOW...
$$

  *****  WEATHER ACROSS NORTHERN MINNESOTA  *****

CITY           SKY/WX    TMP DP  RH WIND       PRES   REMARKS
FLAG ISLAND    PTSUNNY   52  37  58 N21G28    30.14R
WARROAD        SUNNY     54  37  54 N16G25    30.16R
ROSEAU         SUNNY     54  37  54 N17       30.17R
HALLOCK        SUNNY     54  28  37 N20G28    30.22R
THF RVR FALLS  SUNNY     52  34  50 N21       30.17S
HALSTAD          N/A     57  30  35 N24G37      N/A
FOSSTON        MOSUNNY   55  43  62 NW21      30.14R
BAUDETTE       SUNNY     53  38  56 N22       30.12R
WASKISH        SUNNY     54  41  62 NW15G21   30.12R
CROOKSTON      SUNNY     54  36  50 N20       30.18R
$$
  *****  WEATHER ACROSS CENTRAL AND WEST MINNESOTA  *****

CITY           SKY/WX    TMP DP  RH WIND       PRES   REMARKS
BEMIDJI        PTSUNNY   56  40  55 N13G20    30.10R
PARK RAPIDS    CLOUDY    56  40  55 N15       30.07S
WADENA         CLOUDY    54  43  66 N14       30.06S
DETROIT LAKES  PTSUNNY   54  43  66 N13G30    30.12S
MOORHEAD       PTSUNNY   54  41  62 N21G26    30.15R
FERGUS FALLS   CLOUDY    52  41  66 N17G24    30.10S
ELBOW LAKE     FAIR      51  43  75 N23       30.08R
MORRIS MN      CLOUDY    54  46  76 N23G29    30.06R
STAPLES        CLOUDY    52  43  71 N12       30.06S
WHEATON        CLOUDY    48  41  76 N17G26    30.13F
$$
  *****  WEATHER ELSEWHERE ACROSS MINNESOTA  *****

CITY           SKY/WX    TMP DP  RH WIND       PRES   REMARKS
DULUTH         CLOUDY    54  49  83 NW15G26   29.98R
INTRNTL FALLS  CLOUDY    50  40  68 N17G24    30.09R
ELY            NOT AVBL
CLOQUET        CLOUDY    54  46  76 N14G22    30.00S
BRAINERD       CLOUDY    53  44  71 N14G23    30.04S
HIBBING        CLOUDY    55  46  71 N10       30.03R
ALEXANDRIA     CLOUDY    53  46  77 N15G25    30.05S
SAINT CLOUD    LGT RAIN  53  50  89 N15G23    29.99R
MINNEAPOLIS    LGT RAIN  63  61  93 N13       29.91R FOG
$$

  *****  WEATHER ACROSS SOUTH DAKOTA  *****

CITY           SKY/WX    TMP DP  RH WIND       PRES   REMARKS
SIOUX FALLS    CLOUDY    51  48  89 N22G28    30.03R
BROOKINGS      CLOUDY    50  45  81 N18G25    30.08R
WATERTOWN      PTSUNNY   50  42  74 N24G31    30.09R
HURON          CLOUDY    52  44  74 N23       30.14R
SISSETON         N/A     50  43  77 N24G30    30.12S
ABERDEEN       CLOUDY    55  41  59 N18       30.16S
MITCHELL       CLOUDY    52  46  80 N22G30    30.12R
PIERRE         PTSUNNY   55  41  59 N18       30.21R
MOBRIDGE       CLOUDY    55  37  50 N15       30.22R
RAPID CITY     PTSUNNY   56  41  57 N14       30.27R
$$

  *****  SOME WEATHER IN NEARBY STATES *****

CITY           SKY/WX    TMP DP  RH WIND       PRES   REMARKS
GLASGOW MT     SUNNY     59  32  36 VRB3      30.26F
GREAT FALLS MT MOSUNNY   67  50  54 E14       30.12F
CHEYENNE WY    CLOUDY    53  42  66 N20G29    30.28R
SCOTTSBLUFF NE LGT RAIN  53  49  86 N15G23    30.27R
OMAHA NE       CLOUDY    78  60  53 S10       29.87F
DES MOINES IA  CLOUDY    75  64  68 SW16      29.88F
DAVENPORT IA   PTSUNNY   78  60  53 W14       29.91R
CHICAGO IL     PTSUNNY   80  64  58 SW13G23   29.89F
EAU CLAIRE WI  LGT RAIN  67  64  90 VRB7      29.87F
LA CROSSE WI   CLOUDY    69  65  86 N8        29.87R
$$

  *****  SOME NATIONAL WEATHER *****

CITY           SKY/WX    TMP DP  RH WIND       PRES   REMARKS
LA GUARDIA NY  PTSUNNY   73  56  54 S9        30.23R
RALEIGH NC     MOSUNNY   83  53  35 SE7       30.17S
ATLANTA GA     MOSUNNY   83  61  47 SE9       30.13F
NEW ORLEANS LA PTSUNNY   82  68  62 SE10      30.03F
OKLAHOMA CITY  CLOUDY    79  61  53 N5        29.92F
ALBUQUERQUE NM PTSUNNY   76  34  21 W9        30.12F
SALT LAKE CITY MOSUNNY   76  34  21 N8        30.12F
LOS ANGELES CA MOSUNNY   66  57  72 W12       29.91F
BOISE ID       MOSUNNY   84  34  16 VRB6G17   30.00F
SEATTLE WA     MOSUNNY   78  54  43 S9        29.92F
$$

*** WEATHER ACROSS MANITOBA...SASKATCHEWAN AND ONTARIO ***
                ***ONTARIO***

CITY           SKY/WX    TMP DP  RH WIND       PRES   REMARKS
GERALDTON      DRIZZLE   46  45  93 NW12      29.94R
THUNDER BAY    CLOUDY    61  52  72 NW9       29.92R
SIOUX LOOKOUT  CLOUDY    50  39  66 NW16      30.05R
TORONTO        PTSUNNY   73  54  49 E8        30.06F
BIG TROUT LK   LGT RAIN  37  37 100 NE6       30.07S
PICKLE LAKE    PTSUNNY   48  39  71 N10G23    30.01R
DRYDEN         CLOUDY    50  39  66 N10G17    30.07R
KENORA         PTSUNNY   50  32  50 NW17G29   30.14R
$$
                *** MANITOBA***

CITY           SKY/WX    TMP DP  RH WIND       PRES   REMARKS
BRANDON        MOSUNNY   52  27  37 NE16G23   30.31R
DAUPHIN        PTSUNNY   46  32  57 NE18G25   30.36S
ISLAND LAKE    FLURRIES  32  25  74 N15G31    30.29R WCI  22
PILOT MOUND      N/A     48  32  53 N14G22      N/A
THE PAS        CLOUDY    43  21  42 N10       30.41S
THOMPSON       FLURRIES  36  21  55 N9        30.39F
WINNIPEG       MOSUNNY   48  27  43 N25       30.29R
LYNN LAKE      CLOUDY    39  23  52 N8        30.40F
CHURCHILL      CLOUDY    28  21  74 N9        30.40F WCI  20
GILLAM         LGT SNOW  28  27  93 N15G24    30.36R WCI  17
$$
                ***SASKATCHEWAN***

CITY           SKY/WX    TMP DP  RH WIND       PRES   REMARKS
ESTEVAN        MOSUNNY   55  28  35 N9        30.29S
KINDERSLEY     MOSUNNY   59  25  27 E15       30.27F
LLOYDMINSTER   PTSUNNY   59  23  25 E14G21    30.28F
PRINCE ALBERT  MOSUNNY   52  25  35 VRB8      30.35
REGINA         MOSUNNY   55  27  33 NE9       30.31F


USA.gov is the U.S. government's official web portal to all federal, state and local government web resources and services.